Weather reports worldwide

Advertisment
Konstanz, Germany (10929): temperature & dewpoint: 18.03.2019 17:00:00 - 24.03.2019 17:00:00 (CET)Konstanz, Germany (10929): temperature 5cm & temperature -5cm: 18.03.2019 17:00:00 - 24.03.2019 17:00:00 (CET)Konstanz, Germany (10929): temperature -20cm & temperature -100cm: 18.03.2019 17:00:00 - 24.03.2019 17:00:00 (CET)Konstanz, Germany (10929): wind speed & gusts: 18.03.2019 17:00:00 - 24.03.2019 17:00:00 (CET)Konstanz, Germany (10929): wind direction: 18.03.2019 17:00:00 - 24.03.2019 17:00:00 (CET)Konstanz, Germany (10929): reduced air pressure: 18.03.2019 17:00:00 - 24.03.2019 17:00:00 (CET)Konstanz, Germany (10929): visibility: 18.03.2019 17:00:00 - 24.03.2019 17:00:00 (CET)Konstanz, Germany (10929): sunshine duration: 18.03.2019 17:00:00 - 24.03.2019 17:00:00 (CET)Konstanz, Germany (10929): precipitation: 18.03.2019 17:00:00 - 24.03.2019 17:00:00 (CET)
Date & Time tt [°C] td [°C] tt 5cm [°C] tt -5cm [°C] tt -20cm [°C] tt -100cm [°C] ff [km/h] ff [kn] fx [km/h] fx [kn] dd ppp [hPa] vv [km] sd [min] rr [mm]
24.03.2019 17:00:00 18,5 -2,3 19,1 18,5 12,1 7,7 16 9 28 15 WSW 1019,4 39 60 0,0
24.03.2019 16:00:00 19,2 0,9 21,7 19,7 11,5 7,7 11 6 24 13 WSW 1019,4 19 60 0,0
24.03.2019 15:00:00 18,4 3,4 22,2 19,7 10,7 7,7 6 3 10 5 SSW 1020,2 16 60 0,0
24.03.2019 14:00:00 16,4 3,7 21,5 18,5 9,8 7,7 6 4 12 7 ESE 1021,1 15 60 0,0
24.03.2019 13:00:00 15,4 3,8 20,0 17,0 9,0 7,7 7 4 11 6 ESE 1022,1 15 60 0,0
24.03.2019 12:00:00 14,1 3,1 17,1 14,4 8,3 7,6 6 3 10 5 SW 1022,9 13 60 0,0
24.03.2019 11:00:00 12,2 3,1 14,5 11,5 7,8 7,6 5 3 10 5 ESE 1023,9 11 60 0,0
24.03.2019 10:00:00 10,4 2,7 11,8 8,7 7,6 7,6 5 3 8 4 SSW 1024,7 12 60 0,0
24.03.2019 09:00:00 8,2 3,0 7,8 6,2 7,6 7,6 4 2 8 4 S 1025,3 12 60 0,0
24.03.2019 08:00:00 5,6 2,6 3,4 5,0 7,8 7,6 3 1 8 4 N 1025,9 9 60 0,0
24.03.2019 07:00:00 3,3 1,5 1,1 4,8 8,1 7,6 4 2 8 4 E 1026,2 9 8 0,0
24.03.2019 06:00:00 3,7 2,2 -0,1 5,2 8,4 7,6 5 3 10 5 W 1026,2 9 0 0,0
24.03.2019 05:00:00 4,1 1,7 1,6 5,6 8,7 7,5 9 5 10 5 W 1025,8 10 0 0,0
24.03.2019 04:00:00 4,7 2,1 1,7 6,0 9,0 7,5 6 4 10 5 WNW 1025,7 13 0 0,0
24.03.2019 03:00:00 5,3 2,3 1,4 6,5 9,3 7,5 4 2 10 5 WNW 1025,9 13 0 0,0
24.03.2019 02:00:00 6,6 2,5 3,5 7,0 9,6 7,5 8 4 11 6 WNW 1026,1 14 0 0,0
24.03.2019 01:00:00 6,6 2,0 2,3 7,5 10,0 7,5 4 2 5 3 W 1026,4 13 0 0,0
24.03.2019 00:00:00 8,1 1,1 3,2 8,1 10,3 7,5 3 1 4 2 W 1026,6 19 0 0,0
23.03.2019 23:00:00 8,5 1,7 3,8 8,8 10,7 7,5 3 2 7 4 WSW 1026,8 20 0 0,0
23.03.2019 22:00:00 8,4 2,7 5,5 9,6 11,1 7,5 4 2 20 11 SSW 1027,3 16 0 0,0
23.03.2019 21:00:00 10,8 0,9 8,3 10,5 11,4 7,5 11 6 14 8 NNE 1026,4 23 0 0,0
23.03.2019 20:00:00 11,0 0,8 7,1 11,6 11,7 7,5 7 4 9 5 E 1026,2 20 0 0,0
23.03.2019 19:00:00 13,9 0,7 9,4 13,2 11,8 7,5 6 4 9 5 SE 1025,3 23 29 0,0
23.03.2019 18:00:00 16,6 0,5 14,0 15,3 11,7 7,5 6 3 8 4 E 1024,7 26 60 0,0
23.03.2019 17:00:00 18,7 0,1 20,0 18,1 11,2 7,5 5 3 9 5 SSE 1024,4 27 60 0,0
23.03.2019 16:00:00 17,9 1,9 22,0 18,7 10,6 7,4 7 4 11 6 E 1024,7 22 60 0,0
23.03.2019 15:00:00 17,2 2,8 22,2 18,7 9,7 7,4 8 4 11 6 E 1025,3 18 60 0,0
23.03.2019 14:00:00 16,5 2,2 21,9 17,7 8,8 7,4 5 3 10 6 E 1026,1 16 60 0,0
23.03.2019 13:00:00 15,4 2,5 18,9 15,9 8,0 7,4 5 3 10 5 SSE 1026,7 15 60 0,0
23.03.2019 12:00:00 13,1 2,2 16,4 13,4 7,2 7,4 7 4 11 6 ENE 1027,9 13 60 0,0
23.03.2019 11:00:00 11,0 2,0 13,6 10,5 6,7 7,4 5 3 9 5 S 1028,8 11 60 0,0
23.03.2019 10:00:00 9,1 2,7 10,3 7,6 6,5 7,4 4 2 8 4 SSE 1029,6 10 60 0,0
23.03.2019 09:00:00 7,5 1,3 4,6 4,9 6,5 7,4 2 1 5 3 SSW 1029,8 10 60 0,0
23.03.2019 08:00:00 4,3 1,7 1,3 3,7 6,7 7,4 0 0 4 2 N 1030,3 8 60 0,0
23.03.2019 07:00:00 1,7 0,5 -0,9 3,5 7,0 7,3 3 1 4 2 NNE 1030,8 6 5 0,0
23.03.2019 06:00:00 2,1 1,1 -0,5 3,8 7,2 7,3 0 0 3 2 N 1030,5 4,9 0 0,0
23.03.2019 05:00:00 2,7 1,4 -0,4 4,2 7,5 7,3 4 2 5 3 N 1030,2 7 0 0,0
23.03.2019 04:00:00 2,9 1,6 -0,3 4,6 7,8 7,3 3 2 8 4 WNW 1030,2 6 0 0,0
23.03.2019 03:00:00 3,7 1,9 0,6 5,1 8,1 7,3 6 3 10 6 WNW 1029,9 8 0 0,0
23.03.2019 02:00:00 3,7 1,5 0,3 5,6 8,5 7,3 4 2 7 4 NNW 1030,1 9 0 0,0
23.03.2019 01:00:00 4,9 1,6 1,1 6,1 8,8 7,3 2 1 5 3 WSW 1029,9 11 0 0,0
23.03.2019 00:00:00 5,4 1,5 2,2 6,7 9,1 7,3 2 1 5 3 NNW 1029,7 11 0 0,0
22.03.2019 23:00:00 6,8 1,9 4,1 7,4 9,5 7,3 5 3 12 6 NNW 1029,3 14 0 0,0
22.03.2019 22:00:00 7,3 1,9 3,0 8,2 9,8 7,3 6 4 11 6 NNE 1029,4 15 0 0,0
22.03.2019 21:00:00 8,3 1,5 4,8 9,1 10,1 7,3 6 3 11 6 NE 1029,0 15 0 0,0
22.03.2019 20:00:00 9,0 1,4 5,8 10,2 10,4 7,3 7 4 9 5 E 1028,9 17 0 0,0
22.03.2019 19:00:00 10,1 1,8 7,1 11,7 10,5 7,3 5 3 6 3 ESE 1028,5 17 0 0,0
22.03.2019 18:00:00 13,0 2,8 11,2 13,5 10,4 7,3 4 2 10 5 SE 1028,0 18 33 0,0
22.03.2019 17:00:00 15,1 1,6 15,2 15,6 9,9 7,3 6 3 10 5 S 1027,8 21 60 0,0
22.03.2019 16:00:00 15,0 1,0 18,6 16,4 9,3 7,3 6 4 12 7 E 1028,2 18 60 0,0
22.03.2019 15:00:00 14,3 0,5 18,3 16,4 8,6 7,3 7 4 13 7 E 1028,7 22 60 0,0
22.03.2019 14:00:00 13,3 0,9 17,7 15,6 7,8 7,3 9 5 14 8 E 1029,1 20 60 0,0
22.03.2019 13:00:00 12,6 1,3 16,2 14,0 7,0 7,2 9 5 14 7 ENE 1029,8 24 60 0,0
22.03.2019 12:00:00 10,1 0,5 14,0 11,8 6,3 7,2 7 4 13 7 E 1030,7 24 60 0,0
22.03.2019 11:00:00 8,9 -0,8 10,9 9,0 5,8 7,2 9 5 14 8 E 1031,4 25 60 0,0
22.03.2019 10:00:00 7,4 -1,0 8,2 6,3 5,6 7,2 4 2 10 5 SE 1032,1 22 60 0,0
22.03.2019 09:00:00 6,2 -0,4 5,5 3,8 5,6 7,2 6 3 9 5 ENE 1032,3 27 60 0,0
22.03.2019 08:00:00 3,1 -1,0 1,5 2,6 5,8 7,2 2 1 6 4 N 1032,8 21 60 0,0
22.03.2019 07:00:00 1,0 -1,8 -1,4 2,5 6,1 7,2 6 4 8 5 NW 1033,0 27 14 0,0
22.03.2019 06:00:00 1,3 -1,2 -1,7 2,8 6,4 7,2 4 2 5 3 NNE 1032,6 22 0 0,0
22.03.2019 05:00:00 1,4 -2,1 -2,0 3,2 6,6 7,2 5 3 8 4 NNE 1032,1 31 0 0,0
22.03.2019 04:00:00 2,8 -1,7 -0,6 3,6 6,9 7,2 8 4 11 6 WNW 1031,7 35 0 0,0
22.03.2019 03:00:00 2,5 -0,7 0,3 4,1 7,2 7,2 8 5 9 5 W 1031,7 28 0 0,0
22.03.2019 02:00:00 3,7 -0,8 1,3 4,5 7,5 7,2 8 5 11 6 WNW 1031,5 31 0 0,0
22.03.2019 01:00:00 4,0 -1,5 0,9 5,0 7,9 7,2 8 4 9 5 WNW 1031,6 21 0 0,0
22.03.2019 00:00:00 4,5 -1,2 1,1 5,6 8,2 7,2 4 2 7 4 S 1031,7 32 0 0,0
21.03.2019 23:00:00 6,3 -2,6 1,4 6,3 8,5 7,2 4 2 8 5 NE 1031,5 50 0 0,0
21.03.2019 22:00:00 8,6 -2,8 4,2 7,0 8,8 7,2 5 3 27 15 ENE 1031,2 59 0 0,0
21.03.2019 21:00:00 9,7 -2,8 7,5 7,7 9,1 7,2 13 7 25 13 NE 1031,0 51 0 0,0
21.03.2019 20:00:00 9,3 -2,3 5,0 8,7 9,4 7,2 5 3 22 12 N 1031,2 59 0 0,0
21.03.2019 19:00:00 10,6 -2,0 7,9 10,0 9,5 7,2 9 5 29 16 NE 1030,5 61 32 0,0
21.03.2019 18:00:00 12,6 -1,1 10,5 11,8 9,4 7,2 11 6 23 12 NE 1029,6 64 60 0,0
21.03.2019 17:00:00 14,1 -1,4 15,5 14,4 9,0 7,2 9 5 16 9 ENE 1029,1 51 60 0,0
21.03.2019 16:00:00 14,5 -2,7 16,7 15,5 8,4 7,2 5 3 14 8 NE 1029,1 43 60 0,0
21.03.2019 15:00:00 13,9 -2,3 18,4 15,4 7,6 7,2 5 3 15 8 E 1029,5 38 60 0,0
21.03.2019 14:00:00 13,1 -2,3 16,4 14,4 6,8 7,2 8 4 16 8 S 1030,4 38 60 0,0
21.03.2019 13:00:00 11,1 -3,0 14,9 12,7 6,0 7,2 8 4 16 9 E 1031,5 37 60 0,0
21.03.2019 12:00:00 10,2 -2,4 13,3 10,4 5,3 7,2 8 4 22 12 E 1031,9 40 60 0,0
21.03.2019 11:00:00 9,0 -2,8 10,6 7,8 4,9 7,2 11 6 24 13 ESE 1032,3 47 60 0,0
21.03.2019 10:00:00 7,9 -2,6 8,3 5,2 4,6 7,2 13 7 22 12 ENE 1032,6 34 60 0,0
21.03.2019 09:00:00 5,5 -3,4 4,9 2,8 4,7 7,2 14 8 24 13 E 1032,9 46 60 0,0
21.03.2019 08:00:00 4,0 -3,4 1,8 1,8 4,8 7,2 10 5 29 16 ENE 1032,9 48 60 0,0
21.03.2019 07:00:00 2,9 -3,8 0,9 1,7 5,0 7,2 13 7 30 16 NE 1033,1 55 15 0,0
21.03.2019 06:00:00 2,7 -3,8 0,6 1,8 5,2 7,2 16 8 35 19 NE 1032,9 55 0 0,0
21.03.2019 05:00:00 3,3 -4,0 1,2 2,1 5,5 7,2 16 9 33 18 NE 1033,0 54 0 0,0
21.03.2019 04:00:00 3,4 -3,7 1,6 2,3 5,7 7,2 14 7 27 15 NE 1032,9 52 0 0,0
21.03.2019 03:00:00 3,4 -3,2 1,6 2,6 6,0 7,2 11 6 26 14 NNE 1033,4 49 0 0,0
21.03.2019 02:00:00 3,7 -3,5 1,7 3,0 6,3 7,2 11 6 22 12 NE 1033,9 50 0 0,0
21.03.2019 01:00:00 4,5 -3,6 2,5 3,4 6,6 7,2 13 7 23 13 NE 1033,9 55 0 0,0
21.03.2019 00:00:00 4,6 -3,3 2,4 3,8 6,9 7,2 11 6 27 15 NE 1034,3 57 0 0,0
20.03.2019 23:00:00 5,0 -3,4 3,0 4,3 7,2 7,2 13 7 23 12 NE 1034,5 65 0 0,0
20.03.2019 22:00:00 4,8 -3,0 0,7 4,9 7,5 7,2 6 3 9 5 N 1034,6 62 0 0,0
20.03.2019 21:00:00 5,5 -2,8 2,0 5,7 7,9 7,2 5 3 18 10 NNE 1034,5 64 0 0,0
20.03.2019 20:00:00 6,6 -2,7 4,4 6,5 8,2 7,2 9 5 21 11 NE 1034,1 62 0 0,0
20.03.2019 19:00:00 7,8 -2,9 5,7 7,7 8,4 7,2 14 7 24 13 NE 1033,6 63 33 0,0
20.03.2019 18:00:00 9,4 -2,8 7,4 9,3 8,4 7,2 11 6 24 13 NE 1032,5 63 60 0,0
20.03.2019 17:00:00 10,7 -3,1 11,5 11,9 8,1 7,2 13 7 29 16 NE 1032,0 51 59 0,0
20.03.2019 16:00:00 11,3 -3,7 12,6 13,1 7,7 7,2 14 7 29 15 NE 1032,0 45 60 0,0
20.03.2019 15:00:00 10,6 -3,3 13,7 13,5 7,0 7,2 12 6 23 12 E 1032,5 41 60 0,0
20.03.2019 14:00:00 11,0 -4,0 13,5 13,2 6,3 7,2 13 7 23 12 ENE 1032,9 45 60 0,0
20.03.2019 13:00:00 9,6 -3,8 12,0 12,2 5,5 7,2 7 4 13 7 NNE 1033,7 41 60 0,0
20.03.2019 12:00:00 8,7 -1,3 10,6 9,9 4,8 7,2 6 3 11 6 S 1034,0 40 60 0,0
20.03.2019 11:00:00 6,0 -1,9 8,3 7,0 4,4 7,2 6 3 12 6 E 1034,8 42 60 0,0
20.03.2019 10:00:00 5,7 -1,6 5,5 4,0 4,2 7,2 6 3 12 6 E 1034,6 35 60 0,0
20.03.2019 09:00:00 3,7 -1,5 1,5 1,6 4,3 7,2 4 2 9 5 NE 1035,0 25 60 0,0
20.03.2019 08:00:00 0,6 -1,4 -1,2 1,4 4,4 7,2 3 1 7 4 NNW 1035,1 15 60 0,0
20.03.2019 07:00:00 -0,8 -1,8 -2,7 1,4 4,6 7,2 6 3 9 5 NNE 1034,7 10 6 0,0
20.03.2019 06:00:00 -0,6 -1,4 -2,8 1,4 4,8 7,2 5 3 10 5 NNE 1034,1 10 0 0,0
20.03.2019 05:00:00 -0,6 -1,7 -2,9 1,5 5,0 7,2 0 0 6 4 N 1033,7 17 0 0,0
20.03.2019 04:00:00 0,0 -1,0 -2,7 1,6 5,2 7,2 5 3 6 4 NNE 1033,6 17 0 0,0
20.03.2019 03:00:00 0,0 -1,2 -2,3 1,9 5,5 7,2 3 2 4 2 N 1033,7 21 0 0,0
20.03.2019 02:00:00 0,3 -1,1 -2,8 2,2 5,8 7,2 4 2 7 4 W 1033,6 30 0 0,0
20.03.2019 01:00:00 1,3 -0,8 -1,6 2,7 6,1 7,2 6 3 8 4 NW 1033,3 47 0 0,0
20.03.2019 00:00:00 1,1 -1,5 -1,3 3,2 6,4 7,2 5 3 6 4 W 1033,0 46 0 0,0
19.03.2019 23:00:00 1,9 -0,7 -0,7 3,7 6,7 7,2 4 2 6 4 NW 1032,5 38 0 0,0
19.03.2019 22:00:00 2,9 -0,5 0,4 4,3 7,0 7,2 6 3 14 8 N 1031,8 67 0 0,0
19.03.2019 21:00:00 3,5 -0,4 1,8 5,0 7,3 7,2 10 5 14 8 N 1031,3 70 0 0,0
19.03.2019 20:00:00 4,6 -1,5 0,9 6,0 7,6 7,2 4 2 6 3 W 1030,4 0,1 0 0,0
19.03.2019 19:00:00 5,7 -2,0 2,7 7,2 7,7 7,2 4 2 7 4 N 1029,7 70 6 0,0
19.03.2019 18:00:00 7,4 -2,8 5,6 8,7 7,7 7,2 4 2 6 3 WNW 1028,6 70 44 0,0
19.03.2019 17:00:00 7,7 -2,5 7,3 10,2 7,5 7,2 5 3 12 6 N 1028,1 70 23 0,0
19.03.2019 16:00:00 9,1 -3,9 11,3 11,1 7,1 7,2 5 3 17 9 NNE 1027,7 69 57 0,0
19.03.2019 15:00:00 7,9 -2,6 9,5 9,7 6,8 7,3 8 4 23 12 ENE 1027,8 70 5 0,0
19.03.2019 14:00:00 6,3 0,1 7,3 9,7 6,4 7,3 11 6 19 10 ENE 1028,4 46 0 0,0
19.03.2019 13:00:00 6,8 0,8 9,0 11,1 5,7 7,3 8 5 16 8 E 1028,2 45 31 0,0
19.03.2019 12:00:00 6,0 1,2 8,3 10,1 5,1 7,3 5 3 11 6 E 1028,1 24 53 0,0
19.03.2019 11:00:00 3,9 1,7 6,2 6,2 4,9 7,3 3 2 10 5 ENE 1028,6 11 9 0,0
19.03.2019 10:00:00 1,3 0,2 2,5 4,6 4,7 7,3 3 1 8 4 NNE 1029,0 8 0 0,0
19.03.2019 09:00:00 0,3 -0,3 1,2 3,5 4,7 7,3 2 1 6 4 WSW 1028,8 0,3 0 0,0
19.03.2019 08:00:00 -0,4 -0,4 0,1 2,8 4,7 7,3 5 3 10 5 NNW 1028,5 0,3 0 0,0
19.03.2019 07:00:00 0,1 0,1 0,3 2,6 4,8 7,3 4 2 10 5 WNW 1027,6 0,2 0 0,0
19.03.2019 06:00:00 -0,5 -0,9 -0,1 2,6 4,9 7,3 2 1 6 3 WNW 1027,2 0,2 0 0,0
19.03.2019 05:00:00 -0,3 -0,7 0,0 2,6 5,0 7,3 3 2 6 3 NNE 1027,1 0,2 0 0,0
19.03.2019 04:00:00 0,2 -0,2 0,2 2,5 5,2 7,2 3 2 8 5 W 1026,5 0,1 0 0,0
19.03.2019 03:00:00 0,0 0,0 -0,3 2,1 5,4 7,2 7 4 11 6 N 1026,4 0,1 0 0,0
19.03.2019 02:00:00 0,0 -0,5 -0,9 2,2 5,7 7,2 7 4 8 5 NNW 1026,5 6 0 0,0
19.03.2019 01:00:00 0,6 0,1 -1,8 2,6 5,9 7,2 5 3 10 5 NNE 1026,5 7 0 0,0
19.03.2019 00:00:00 0,9 0,0 -1,4 3,1 6,2 7,2 4 2 5 3 W 1026,2 40 0 0,0
18.03.2019 23:00:00 1,7 0,9 -1,2 3,6 6,5 7,2 3 2 7 4 E 1026,0 49 0 0,0
18.03.2019 22:00:00 2,1 1,1 -0,5 4,3 6,7 7,2 5 3 7 4 NW 1025,6 70 0 0,0
18.03.2019 21:00:00 2,9 1,4 1,2 5,1 6,9 7,2 4 2 10 6 NNW 1025,1 36 0 0,0
18.03.2019 20:00:00 3,0 1,2 1,3 5,6 7,1 7,2 3 1 23 13 WSW 1024,6 70 0 0,2
18.03.2019 19:00:00 3,6 1,3 2,8 6,3 7,2 7,2 13 7 27 15 W 1023,9 35 0 0,2
18.03.2019 18:00:00 5,5 0,2 4,9 7,1 7,2 7,2 11 6 34 18 WSW 1022,7 70 26 0,0
18.03.2019 17:00:00 7,4 -1,0 8,0 8,5 7,1 7,2 7 4 23 12 W 1021,4 55 32 0,0

tt = temperature
td = dewpoint
tt 5cm = temperature 5cm
tt -5cm = temperature -5cm
tt -20cm = temperature -20cm
tt -100cm = temperature -100cm
ff = wind speed
fx = gusts
dd = wind direction
ppp = reduced air pressure
vv = visibility
sd = sunshine duration
rr = precipitation

Next stations